This is the latest recevied weather packets stored in our database for station/object W2GUX. If no packets are shown the sender has not sent any weather packets the latest 10 day(s).
| Time | Temp. | Humidity | Pressure | Rain* | Wind** | Luminosity | Snow |
|---|---|---|---|---|---|---|---|
| 1778165104 | 15° C | 32% | 1008.1 hPa | 0 mm | - | - | - |
| 1778164804 | 15° C | 33% | 1008.1 hPa | 0 mm | - | - | - |
| 1778164504 | 15° C | 31% | 1008.2 hPa | 0 mm | - | - | - |
| 1778164203 | 14.44° C | 33% | 1008.1 hPa | 0 mm | - | - | - |
| 1778163903 | 14.44° C | 34% | 1008.1 hPa | 0 mm | - | - | - |
| 1778163604 | 14.44° C | 33% | 1008.1 hPa | 0 mm | - | - | - |
| 1778163304 | 13.89° C | 36% | 1008.1 hPa | 0 mm | - | - | - |
| 1778163004 | 13.89° C | 35% | 1008.2 hPa | 0 mm | - | - | - |
| 1778162703 | 13.89° C | 35% | 1008.2 hPa | 0 mm | - | - | - |
| 1778162404 | 13.89° C | 39% | 1008.2 hPa | 0 mm | - | - | - |
| 1778162103 | 14.44° C | 42% | 1008.1 hPa | 0 mm | - | - | - |
| 1778161803 | 13.89° C | 42% | 1008.1 hPa | 0 mm | - | - | - |
| 1778161503 | 13.33° C | 44% | 1008.1 hPa | 0 mm | - | - | - |
| 1778161204 | 13.33° C | 45% | 1008.2 hPa | 0 mm | - | - | - |
| 1778160904 | 12.78° C | 44% | 1008.2 hPa | 0 mm | - | - | - |
| 1778160603 | 13.33° C | 42% | 1008.2 hPa | 0 mm | - | - | - |
| 1778160303 | 13.33° C | 46% | 1008.2 hPa | 0 mm | - | - | - |
| 1778160004 | 13.33° C | 53% | 1008.2 hPa | 0 mm | - | - | - |
| 1778159704 | 12.78° C | 54% | 1008.2 hPa | 0 mm | - | - | - |
| 1778159404 | 12.22° C | 59% | 1008.1 hPa | 0 mm | - | - | - |
| 1778159103 | 11.67° C | 61% | 1008.1 hPa | 0 mm | - | - | - |
| 1778158803 | 11.67° C | 62% | 1008.1 hPa | 0 mm | - | - | - |
| 1778158503 | 11.67° C | 66% | 1008.1 hPa | 0 mm | - | - | - |
| 1778158204 | 11.11° C | 68% | 1008.1 hPa | 0 mm | - | - | - |
| 1778157904 | 11.11° C | 69% | 1008.2 hPa | 0 mm | - | - | - |
* Rain latest hour (hover to see other rain measurements)
** Current wind speed in m/s (hover to see current wind gust speed)